Regional Weather Roundup
Issued by NWS

Home | Current Version | Previous Version | Graphics & Text | Print | Product List | Glossary On
Versions: 1 2 3 4 5 6 7 8 9 10 11 12 13 14 15 16 17 18 19 20 21 22 23 24 25 26 27
000
ASUS45 KPSR 221010
RWRAZ

ARIZONA HOURLY REGIONAL WEATHER ROUNDUP
NATIONAL WEATHER SERVICE PHOENIX AZ
300 AM MST MON JAN 22 2018

NOTE: FAIR INDICATES FEW OR NO CLOUDS BELOW 12,000 FEET WITH NO
SIGNIFICANT WEATHER AND/OR OBSTRUCTIONS TO VISIBILITY.

AZZ001>003-036-221100-
NORTHWEST ARIZONA

CITY           SKY/WX    TMP DP  RH WIND       PRES   REMARKS
BULLHEAD CITY  PTCLDY    46  21  36 E5        30.30S
KINGMAN        MOCLDY   N/A N/A N/A E6        30.28S
$$

AZZ004>008-015-016-018-221100-
NORTH CENTRAL ARIZONA

CITY           SKY/WX    TMP DP  RH WIND       PRES   REMARKS
GRAND CANYON   MOCLDY     2  -1  88 CALM      30.23R
WILLIAMS       PTCLDY     7   1  78 S8        30.20F WCI  -6
PRESCOTT       PTCLDY    26  15  63 SW5       30.25R WCI  20
FLAGSTAFF      MOCLDY     2  -2  83 CALM      30.19F
PAYSON         PTCLDY    27  16  63 NE5       30.22S WCI  21
PAGE           PTCLDY    25  11  55 SE5       30.27R WCI  19
$$

AZZ009>014-017-221100-
NORTHEAST ARIZONA

CITY           SKY/WX    TMP DP  RH WIND       PRES   REMARKS
WINSLOW        CLOUDY    14   7  73 CALM      30.26S
SAINT JOHNS    CLOUDY    16   9  74 S3        30.22R
WINDOW ROCK    MOCLDY     2  -2  83 CALM      30.19S
SHOW LOW       DRIZZLE   10   7  85 E6        30.22F WCI   1
$$

AZZ540-542>544-546-548-221100-
GREATER PHOENIX AREA

CITY           SKY/WX    TMP DP  RH WIND       PRES   REMARKS
PHOENIX        PTCLDY    42  25  50 E5        30.24S
BUCKEYE        CLEAR     37  16  41 N7        30.26S WCI  32
LUKE AFB       PTCLDY    38  25  61 N7        30.24S WCI  32
DEER VALLEY    PTCLDY    39  25  57 CALM      30.24S
SCOTTSDALE     CLEAR     38  26  62 CALM      30.25S
MESA-GATEWAY   PTCLDY    34  22  63 SE9       30.27S WCI  26
$$

AZZ539-553-221100-
SOUTHWEST MARICOPA COUNTY AND PINAL COUNTY

CITY           SKY/WX    TMP DP  RH WIND       PRES   REMARKS
CASA GRANDE    NOT AVBL
GILA BEND      FAIR      37  13  36 E3        30.25R
$$

AZZ503-504-507>509-221100-
SOUTHEAST ARIZONA

CITY           SKY/WX    TMP DP  RH WIND       PRES   REMARKS
TUCSON         PTCLDY    34  18  52 E5        30.26F WCI  30
DAVIS-MONTHAN  PTCLDY    30  19  62 SE8       30.24S WCI  23
NOGALES        CLEAR     24   9  52 E5        30.22F WCI  18
SIERRA VISTA   PTCLDY    26  11  52 S7        30.24R WCI  18
DOUGLAS        MOCLDY    23  13  65 N9        30.24R WCI  13
SAFFORD        PTCLDY    28  15  58 SE5       30.23S WCI  23
$$

AZZ532-221100-
SOUTHWEST ARIZONA

CITY           SKY/WX    TMP DP  RH WIND       PRES   REMARKS
YUMA           MOCLDY    45  19  35 N5        30.27S
$$

CAZ041-043-047-048-061-525>527-560>570-221100-
SOUTHERN CALIFORNIA

CITY           SKY/WX    TMP DP  RH WIND       PRES   REMARKS
DOWNTOWN L.A.  PTCLDY    49  28  44 CALM      30.25F
L.A. AIRPORT   PTCLDY    50  31  48 E3        30.26S
SAN DIEGO      PTCLDY    50  35  56 CALM      30.27S
BURBANK        PTCLDY    45  28  51 SW3       30.25S
ONTARIO        PTCLDY    39  29  67 N3        30.25F
RIVERSIDE      PTCLDY    43  32  65 CALM      30.26S
PALM SPRINGS   MOCLDY    47  32  56 N5        30.30S
EL CENTRO NAS  PTCLDY    40  12  32 W7        30.30R
IMPERIAL       PTCLDY    42  17  36 SW3       30.28S
BLYTHE         MOCLDY    42  15  33 S5        30.28S
NEEDLES        MOCLDY    43  18  36 CALM      30.29S
$$

NVZ020-UTZ003-221100-
SOUTHERN NEVADA-UTAH

CITY           SKY/WX    TMP DP  RH WIND       PRES   REMARKS
LAS VEGAS      CLOUDY    39  23  52 CALM      30.31S
SALT LAKE CITY PTCLDY    25  16  68 SE10      30.30S WCI  15
$$

NMZ009-TXZ055-221100-
NEW MEXICO-WEST TEXAS

CITY           SKY/WX    TMP DP  RH WIND       PRES   REMARKS
ALBUQUERQUE    PTCLDY    28  10  46 N12       30.15R WCI  18
EL PASO        PTCLDY    37  10  32 N6        30.16R WCI  32
$$


........................KEY........................
SKY/WX - SKY CONDITION/WEATHER
TMP    - TEMPERATURE IN FAHRENHEIT
DP     - DEW POINT IN FAHRENHEIT
RH     - RELATIVE HUMIDITY IN PERCENT
WIND   - DIRECTION AND SPEED IN MILES PER HOUR (MPH)
VRB    - VARIABLE WIND DIRECTION
PRES   - MEAN SEA LEVEL PRESSURE IN INCHES OF MERCURY
         F - FALLING PRESSURE   R - RISING PRESSURE
         S - STEADY PRESSURE
VSB    - VISIBILITY IN MILES
HX     - HEAT INDEX IN FAHRENHEIT
WCI    - WIND CHILL INDEX IN FAHRENHEIT
TC     - TEMPERATURE IN CELSIUS WHICH IS ALSO KNOWN AS
         TEMPERATURE IN CENTIGRADE
AFB    - AIR FORCE BASE
         LUKE AFB IS LUKE AIR FORCE BASE
         DAVIS-MONTHAN IS DAVIS-MONTHAN AIR FORCE BASE
NAS    - NAVAL AIR STATION
         EL CENTRO NAS IS EL CENTRO NAVAL AIR STATION
N/A    - NOT AVAILABLE





USA.gov is the U.S. government's official web portal to all federal, state and local government web resources and services.